| time (UTC) | temp F | wind direction | speed MPH | gust MPH | rain 1hr in | rain 24hr in | rain mn in | humidity % | barometer mb |
| 20260901191003 | 88 | 309 | 1.0 | 4.0 | 0.00 | 0.00 | 0.00 | 75 | 1014.6 |
| 20260901190502 | 87 | 310 | 1.0 | 2.0 | 0.00 | 0.00 | 0.00 | 77 | 1014.5 |
| 20260901190006 | 86 | 310 | 0.0 | 2.0 | 0.00 | 0.00 | 0.00 | 76 | 1014.5 |
| 20260901185503 | 86 | 310 | 0.0 | 1.0 | 0.00 | 0.00 | 0.00 | 76 | 1014.6 |
| 20260901185003 | 87 | 309 | 0.0 | 1.0 | 0.00 | 0.00 | 0.00 | 75 | 1014.7 |
| 20260901184502 | 87 | 309 | 1.0 | 4.0 | 0.00 | 0.00 | 0.00 | 73 | 1014.8 |
| 20260901183502 | 87 | 288 | 2.0 | 7.0 | 0.00 | 0.00 | 0.00 | 70 | 1014.6 |
| 20260901183004 | 88 | 291 | 2.0 | 7.0 | 0.00 | 0.00 | 0.00 | 70 | 1014.6 |
| 20260901182503 | 89 | 312 | 2.0 | 4.0 | 0.00 | 0.00 | 0.00 | 71 | 1014.7 |
| 20260901182003 | 90 | 313 | 2.0 | 4.0 | 0.00 | 0.00 | 0.00 | 68 | 1014.8 |
| 20260901181003 | 89 | 313 | 1.0 | 4.0 | 0.00 | 0.00 | 0.00 | 72 | 1014.8 |
| 20260901180502 | 88 | 313 | 1.0 | 4.0 | 0.00 | 0.00 | 0.00 | 74 | 1014.9 |
| 20260901180006 | 88 | 316 | 1.0 | 4.0 | 0.00 | 0.00 | 0.00 | 72 | 1014.9 |
| 20260901175502 | 88 | 323 | 1.0 | 4.0 | 0.00 | 0.00 | 0.00 | 71 | 1015.0 |
| 20260901175003 | 88 | 323 | 2.0 | 9.0 | 0.00 | 0.00 | 0.00 | 71 | 1015.0 |
| 20260901174002 | 89 | 334 | 3.0 | 10.0 | 0.00 | 0.00 | 0.00 | 71 | 1015.1 |
| 20260901173502 | 89 | 315 | 4.0 | 12.0 | 0.00 | 0.00 | 0.00 | 69 | 1015.0 |
| 20260901173002 | 90 | 304 | 4.0 | 12.0 | 0.00 | 0.00 | 0.00 | 67 | 1015.0 |
| 20260901172503 | 91 | 335 | 2.0 | 6.0 | 0.00 | 0.00 | 0.00 | 68 | 1015.0 |
| 20260901172004 | 91 | 280 | 2.0 | 5.0 | 0.00 | 0.00 | 0.00 | 73 | 1015.0 |
| 20260901171502 | 91 | 321 | 2.0 | 6.0 | 0.00 | 0.00 | 0.00 | 68 | 1015.1 |
| 20260901171002 | 90 | 329 | 3.0 | 6.0 | 0.00 | 0.00 | 0.00 | 70 | 1015.2 |
| 20260901170501 | 91 | 258 | 3.0 | 9.0 | 0.00 | 0.00 | 0.00 | 70 | 1015.2 |
| 20260901165501 | 90 | 341 | 3.0 | 8.0 | 0.00 | 0.00 | 0.00 | 67 | 1015.2 |
| 20260901165002 | 90 | 326 | 3.0 | 8.0 | 0.00 | 0.00 | 0.00 | 69 | 1015.3 |
| 20260901163501 | 90 | 300 | 3.0 | 9.0 | 0.00 | 0.00 | 0.00 | 69 | 1015.5 |
| 20260901163001 | 90 | 280 | 2.0 | 6.0 | 0.00 | 0.00 | 0.00 | 72 | 1015.5 |
| 20260901162500 | 90 | 264 | 2.0 | 6.0 | 0.00 | 0.00 | 0.00 | 70 | 1015.5 |
| 20260901162001 | 91 | 284 | 2.0 | 4.0 | 0.00 | 0.00 | 0.00 | 72 | 1015.5 |
| 20260901161001 | 89 | 282 | 2.0 | 5.0 | 0.00 | 0.00 | 0.00 | 72 | 1015.7 |
| 20260901160501 | 89 | 303 | 2.0 | 7.0 | 0.00 | 0.00 | 0.00 | 73 | 1015.7 |
| 20260901160002 | 89 | 311 | 2.0 | 7.0 | 0.00 | 0.00 | 0.00 | 72 | 1015.8 |
| 20260901155501 | 88 | 273 | 2.0 | 6.0 | 0.00 | 0.00 | 0.00 | 73 | 1015.7 |
| 20260901155003 | 88 | 274 | 2.0 | 6.0 | 0.00 | 0.00 | 0.00 | 73 | 1015.7 |
| 20260901154501 | 90 | 271 | 2.0 | 4.0 | 0.00 | 0.00 | 0.00 | 73 | 1015.7 |
| 20260901154003 | 88 | 271 | 2.0 | 4.0 | 0.00 | 0.00 | 0.00 | 74 | 1015.8 |
| 20260901153501 | 88 | 265 | 2.0 | 4.0 | 0.00 | 0.00 | 0.00 | 73 | 1015.9 |
| 20260901153002 | 87 | 266 | 2.0 | 4.0 | 0.00 | 0.00 | 0.00 | 73 | 1016.0 |
| 20260901152002 | 86 | 272 | 2.0 | 5.0 | 0.00 | 0.00 | 0.00 | 74 | 1016.1 |
| 20260901151501 | 87 | 299 | 1.0 | 4.0 | 0.00 | 0.00 | 0.00 | 75 | 1016.1 |
| 20260901151002 | 88 | 299 | 1.0 | 4.0 | 0.00 | 0.00 | 0.00 | 72 | 1016.1 |
| 20260901150501 | 87 | 300 | 1.0 | 4.0 | 0.00 | 0.00 | 0.00 | 74 | 1016.0 |
| 20260901150001 | 87 | 300 | 2.0 | 4.0 | 0.00 | 0.00 | 0.00 | 73 | 1016.0 |
| 20260901145502 | 87 | 330 | 2.0 | 5.0 | 0.00 | 0.00 | 0.00 | 72 | 1016.1 |
| 20260901145002 | 87 | 331 | 2.0 | 5.0 | 0.00 | 0.00 | 0.00 | 74 | 1016.2 |
| 20260901144500 | 87 | 256 | 1.0 | 3.0 | 0.00 | 0.00 | 0.00 | 72 | 1016.2 |
| 20260901144001 | 86 | 256 | 2.0 | 6.0 | 0.00 | 0.00 | 0.00 | 73 | 1016.2 |
| 20260901143502 | 87 | 256 | 3.0 | 7.0 | 0.00 | 0.00 | 0.00 | 74 | 1016.3 |
| 20260901142501 | 86 | 252 | 1.0 | 5.0 | 0.00 | 0.00 | 0.00 | 75 | 1016.3 |
| 20260901141503 | 86 | 251 | 2.0 | 4.0 | 0.00 | 0.00 | 0.00 | 74 | 1016.2 |
| 20260901140501 | 85 | 247 | 2.0 | 7.0 | 0.00 | 0.00 | 0.00 | 77 | 1016.4 |
| 20260901140006 | 85 | 286 | 2.0 | 8.0 | 0.00 | 0.00 | 0.00 | 78 | 1016.5 |
| 20260901135501 | 85 | 273 | 2.0 | 8.0 | 0.00 | 0.00 | 0.00 | 78 | 1016.5 |
| 20260901134501 | 84 | 317 | 2.0 | 6.0 | 0.00 | 0.00 | 0.00 | 80 | 1016.6 |
| 20260901134002 | 84 | 321 | 2.0 | 6.0 | 0.00 | 0.00 | 0.00 | 81 | 1016.6 |
| 20260901133501 | 84 | 309 | 1.0 | 4.0 | 0.00 | 0.00 | 0.00 | 82 | 1016.6 |
| 20260901133001 | 83 | 309 | 1.0 | 4.0 | 0.00 | 0.00 | 0.00 | 83 | 1016.7 |
| 20260901132501 | 82 | 309 | 2.0 | 5.0 | 0.00 | 0.00 | 0.00 | 81 | 1016.6 |
| 20260901132001 | 82 | 250 | 1.0 | 5.0 | 0.00 | 0.00 | 0.00 | 83 | 1016.6 |
| 20260901131500 | 82 | 250 | 1.0 | 4.0 | 0.00 | 0.00 | 0.00 | 84 | 1016.6 |
| 20260901131001 | 82 | 250 | 1.0 | 3.0 | 0.00 | 0.00 | 0.00 | 86 | 1016.6 |
| 20260901130501 | 81 | 250 | 1.0 | 4.0 | 0.00 | 0.00 | 0.00 | 87 | 1016.7 |
| 20260901130000 | 81 | 250 | 1.0 | 5.0 | 0.00 | 0.00 | 0.00 | 87 | 1016.6 |
| 20260901125500 | 80 | 249 | 1.0 | 6.0 | 0.00 | 0.00 | 0.00 | 89 | 1016.7 |
| 20260901125001 | 80 | 264 | 2.0 | 6.0 | 0.00 | 0.00 | 0.00 | 90 | 1016.8 |
| 20260901124000 | 78 | 311 | 1.0 | 3.0 | 0.00 | 0.00 | 0.00 | 93 | 1016.8 |
| 20260901123501 | 78 | 313 | 1.0 | 4.0 | 0.00 | 0.00 | 0.00 | 93 | 1016.8 |
| 20260901123001 | 77 | 252 | 1.0 | 5.0 | 0.00 | 0.00 | 0.00 | 94 | 1016.9 |
| 20260901122500 | 77 | 252 | 1.0 | 5.0 | 0.00 | 0.00 | 0.00 | 94 | 1016.9 |
| 20260901120500 | 76 | 213 | 1.0 | 2.0 | 0.00 | 0.00 | 0.00 | 94 | 1017.0 |
| 20260901120005 | 75 | 213 | 1.0 | 2.0 | 0.00 | 0.00 | 0.00 | 95 | 1017.0 |
| 20260901115500 | 75 | 213 | 0.0 | 2.0 | 0.00 | 0.00 | 0.00 | 95 | 1016.9 |
| 20260901115000 | 75 | 213 | 0.0 | 2.0 | 0.00 | 0.00 | 0.00 | 94 | 1016.9 |
| 20260901114459 | 75 | 213 | 0.0 | 2.0 | 0.00 | 0.00 | 0.00 | 95 | 1016.9 |
| 20260901114001 | 75 | 213 | 0.0 | 2.0 | 0.00 | 0.00 | 0.00 | 95 | 1016.9 |
| 20260901113501 | 74 | 213 | 0.0 | 2.0 | 0.00 | 0.00 | 0.00 | 94 | 1016.9 |
| 20260901113001 | 74 | 213 | 0.0 | 2.0 | 0.00 | 0.00 | 0.00 | 94 | 1017.0 |
| 20260901112500 | 74 | 213 | 0.0 | 1.0 | 0.00 | 0.00 | 0.00 | 94 | 1016.9 |
| 20260901112001 | 74 | 213 | 0.0 | 3.0 | 0.00 | 0.00 | 0.00 | 94 | 1016.8 |
| 20260901111459 | 74 | 213 | 0.0 | 3.0 | 0.00 | 0.00 | 0.00 | 94 | 1016.5 |
| 20260901111000 | 73 | 213 | 0.0 | 2.0 | 0.00 | 0.00 | 0.00 | 94 | 1016.5 |
| 20260901110500 | 73 | 213 | 0.0 | 2.0 | 0.00 | 0.00 | 0.00 | 94 | 1016.5 |
| 20260901110006 | 73 | 213 | 0.0 | 2.0 | 0.00 | 0.00 | 0.00 | 94 | 1016.4 |
| 20260901105003 | 73 | 211 | 0.0 | 2.0 | 0.00 | 0.00 | 0.00 | 94 | 1016.4 |
| 20260901104001 | 73 | 211 | 0.0 | 2.0 | 0.00 | 0.00 | 0.00 | 94 | 1016.3 |
| 20260901103501 | 73 | 211 | 0.0 | 2.0 | 0.00 | 0.00 | 0.00 | 94 | 1016.4 |
| 20260901102501 | 73 | 211 | 0.0 | 3.0 | 0.00 | 0.00 | 0.00 | 94 | 1016.5 |
| 20260901101501 | 72 | 119 | 0.0 | 2.0 | 0.00 | 0.00 | 0.00 | 94 | 1016.5 |
| 20260901101002 | 72 | 119 | 0.0 | 2.0 | 0.00 | 0.00 | 0.00 | 94 | 1016.6 |
| 20260901100500 | 72 | 119 | 0.0 | 0.0 | 0.00 | 0.00 | 0.00 | 94 | 1016.5 |
| 20260901100002 | 72 | 119 | 0.0 | 1.0 | 0.00 | 0.00 | 0.00 | 94 | 1016.4 |
| 20260901095500 | 72 | 119 | 0.0 | 1.0 | 0.00 | 0.00 | 0.00 | 94 | 1016.4 |
| 20260901095000 | 72 | 119 | 0.0 | 0.0 | 0.00 | 0.00 | 0.00 | 94 | 1016.3 |
| 20260901094459 | 72 | 119 | 0.0 | 0.0 | 0.00 | 0.00 | 0.00 | 94 | 1016.3 |
| 20260901093459 | 72 | 119 | 0.0 | 1.0 | 0.00 | 0.00 | 0.00 | 94 | 1016.4 |
| 20260901092459 | 72 | 119 | 0.0 | 1.0 | 0.00 | 0.00 | 0.00 | 94 | 1016.4 |
| 20260901092001 | 72 | 119 | 0.0 | 1.0 | 0.00 | 0.00 | 0.00 | 94 | 1016.4 |
| 20260901091500 | 72 | 119 | 0.0 | 1.0 | 0.00 | 0.00 | 0.00 | 94 | 1016.4 |
| 20260901091000 | 72 | 119 | 0.0 | 0.0 | 0.00 | 0.00 | 0.00 | 94 | 1016.3 |
| 20260901090500 | 72 | 119 | 0.0 | 1.0 | 0.00 | 0.00 | 0.00 | 94 | 1016.3 |
| 20260901090005 | 72 | 119 | 0.0 | 1.0 | 0.00 | 0.00 | 0.00 | 94 | 1016.3 |
| 20260901085459 | 72 | 119 | 0.0 | 0.0 | 0.00 | 0.00 | 0.00 | 94 | 1016.5 |
| 20260901084459 | 72 | 119 | 0.0 | 0.0 | 0.00 | 0.00 | 0.00 | 93 | 1016.6 |
| 20260901084001 | 72 | 119 | 0.0 | 0.0 | 0.00 | 0.00 | 0.00 | 93 | 1016.6 |
| 20260901082459 | 72 | 119 | 0.0 | 0.0 | 0.00 | 0.00 | 0.00 | 93 | 1016.5 |
| 20260901082001 | 72 | 119 | 0.0 | 0.0 | 0.00 | 0.00 | 0.00 | 93 | 1016.5 |
| 20260901080501 | 72 | 119 | 0.0 | 1.0 | 0.00 | 0.00 | 0.00 | 93 | 1016.5 |
| 20260901075500 | 72 | 119 | 0.0 | 1.0 | 0.00 | 0.00 | 0.00 | 93 | 1016.7 |
| 20260901074500 | 72 | 119 | 0.0 | 0.0 | 0.00 | 0.00 | 0.00 | 93 | 1016.8 |
| 20260901074000 | 72 | 119 | 0.0 | 0.0 | 0.00 | 0.00 | 0.00 | 93 | 1016.7 |
| 20260901073500 | 72 | 119 | 0.0 | 1.0 | 0.00 | 0.00 | 0.00 | 93 | 1016.7 |
| 20260901073000 | 72 | 119 | 0.0 | 1.0 | 0.00 | 0.00 | 0.00 | 93 | 1016.8 |
| 20260901072501 | 72 | 119 | 0.0 | 1.0 | 0.00 | 0.00 | 0.00 | 93 | 1016.7 |
| 20260901072000 | 72 | 119 | 0.0 | 1.0 | 0.00 | 0.00 | 0.00 | 93 | 1016.8 |
| 20260901071507 | 72 | 119 | 0.0 | 1.0 | 0.00 | 0.00 | 0.00 | 93 | 1016.8 |
| 20260901070459 | 73 | 119 | 0.0 | 0.0 | 0.00 | 0.00 | 0.00 | 93 | 1016.7 |
| 20260901070006 | 73 | 119 | 0.0 | 0.0 | 0.00 | 0.00 | 0.00 | 93 | 1016.7 |
| 20260901065001 | 73 | 119 | 0.0 | 1.0 | 0.00 | 0.00 | 0.00 | 93 | 1016.8 |
| 20260901064459 | 73 | 119 | 0.0 | 0.0 | 0.00 | 0.00 | 0.00 | 93 | 1016.9 |
| 20260901064001 | 73 | 119 | 0.0 | 0.0 | 0.00 | 0.00 | 0.00 | 93 | 1016.9 |
| 20260901063001 | 73 | 119 | 0.0 | 0.0 | 0.00 | 0.00 | 0.00 | 93 | 1016.9 |
| 20260901062500 | 73 | 119 | 0.0 | 0.0 | 0.00 | 0.00 | 0.00 | 92 | 1017.0 |
| 20260901062000 | 73 | 119 | 0.0 | 1.0 | 0.00 | 0.00 | 0.00 | 93 | 1017.0 |
| 20260901061459 | 73 | 119 | 0.0 | 1.0 | 0.00 | 0.00 | 0.00 | 92 | 1017.1 |
| 20260901061000 | 73 | 119 | 1.0 | 2.0 | 0.00 | 0.00 | 0.00 | 92 | 1017.1 |
| 20260901060500 | 73 | 119 | 1.0 | 2.0 | 0.00 | 0.00 | 0.00 | 92 | 1017.1 |
| 20260901060000 | 73 | 119 | 0.0 | 1.0 | 0.00 | 0.00 | 0.00 | 92 | 1017.3 |
| 20260901054458 | 74 | 119 | 0.0 | 1.0 | 0.00 | 0.00 | 0.00 | 92 | 1017.5 |
| 20260901054000 | 74 | 119 | 0.0 | 0.0 | 0.00 | 0.00 | 0.00 | 92 | 1017.6 |
| 20260901052458 | 74 | 119 | 0.0 | 0.0 | 0.00 | 0.00 | 0.00 | 92 | 1017.8 |
| 20260901052000 | 74 | 119 | 0.0 | 0.0 | 0.00 | 0.00 | 0.00 | 92 | 1017.9 |
| 20260901051459 | 74 | 119 | 0.0 | 0.0 | 0.00 | 0.00 | 0.00 | 92 | 1017.9 |
| 20260901050959 | 74 | 119 | 0.0 | 0.0 | 0.00 | 0.00 | 0.00 | 92 | 1018.0 |
| 20260901050459 | 74 | 119 | 0.0 | 0.0 | 0.00 | 0.00 | 0.00 | 92 | 1018.0 |
| 20260901050005 | 74 | 119 | 0.0 | 1.0 | 0.00 | 0.00 | 0.00 | 92 | 1018.0 |
| 20260901045503 | 74 | 119 | 0.0 | 1.0 | 0.00 | 0.00 | 0.00 | 92 | 1018.0 |
| 20260901045003 | 74 | 119 | 0.0 | 1.0 | 0.00 | 0.00 | 0.00 | 92 | 1018.0 |
| 20260901044004 | 74 | 119 | 0.0 | 1.0 | 0.00 | 0.00 | 0.00 | 92 | 1018.0 |
| 20260901043502 | 74 | 119 | 0.0 | 1.0 | 0.00 | 0.00 | 0.00 | 92 | 1017.9 |
| 20260901042505 | 74 | 119 | 0.0 | 0.0 | 0.00 | 0.00 | 0.00 | 92 | 1017.7 |
| 20260901042003 | 74 | 119 | 0.0 | 0.0 | 0.00 | 0.00 | 0.00 | 92 | 1017.8 |
| 20260901041502 | 74 | 119 | 0.0 | 0.0 | 0.00 | 0.00 | 0.00 | 92 | 1017.8 |
| 20260901040503 | 74 | 119 | 0.0 | 0.0 | 0.00 | 0.00 | 0.00 | 91 | 1017.7 |
| 20260901040010 | 74 | 119 | 0.0 | 0.0 | 0.00 | 0.00 | 0.00 | 91 | 1017.7 |
| 20260901035503 | 74 | 119 | 0.0 | 0.0 | 0.00 | 0.00 | 0.00 | 91 | 1017.7 |
| 20260901035011 | 74 | 119 | 0.0 | 0.0 | 0.00 | 0.00 | 0.00 | 91 | 1017.8 |
| 20260901034504 | 74 | 119 | 0.0 | 1.0 | 0.00 | 0.00 | 0.00 | 91 | 1017.7 |
| 20260901034004 | 74 | 119 | 0.0 | 1.0 | 0.00 | 0.00 | 0.00 | 91 | 1017.6 |
| 20260901033004 | 74 | 119 | 0.0 | 3.0 | 0.00 | 0.00 | 0.00 | 91 | 1017.6 |
| 20260901032506 | 74 | 119 | 0.0 | 3.0 | 0.00 | 0.00 | 0.00 | 91 | 1017.6 |
| 20260901032003 | 74 | 119 | 0.0 | 1.0 | 0.00 | 0.00 | 0.00 | 91 | 1017.6 |
| 20260901031504 | 74 | 119 | 0.0 | 1.0 | 0.00 | 0.00 | 0.00 | 91 | 1017.7 |
| 20260901031005 | 74 | 119 | 0.0 | 2.0 | 0.00 | 0.00 | 0.00 | 91 | 1017.6 |
| 20260901030504 | 74 | 119 | 1.0 | 2.0 | 0.00 | 0.00 | 0.00 | 91 | 1017.5 |
| 20260901030005 | 74 | 119 | 0.0 | 1.0 | 0.00 | 0.00 | 0.00 | 91 | 1017.5 |
| 20260901025503 | 74 | 119 | 0.0 | 1.0 | 0.00 | 0.00 | 0.00 | 91 | 1017.6 |
| 20260901025005 | 74 | 119 | 0.0 | 1.0 | 0.00 | 0.00 | 0.00 | 91 | 1017.6 |
| 20260901024503 | 74 | 119 | 0.0 | 2.0 | 0.00 | 0.00 | 0.00 | 91 | 1017.6 |
| 20260901024004 | 74 | 119 | 0.0 | 2.0 | 0.00 | 0.00 | 0.00 | 91 | 1017.7 |
| 20260901023502 | 75 | 119 | 0.0 | 2.0 | 0.00 | 0.00 | 0.00 | 91 | 1017.8 |
| 20260901023004 | 74 | 119 | 1.0 | 2.0 | 0.00 | 0.00 | 0.00 | 91 | 1017.8 |
| 20260901022502 | 74 | 119 | 1.0 | 2.0 | 0.00 | 0.00 | 0.00 | 91 | 1017.8 |
| 20260901022003 | 74 | 119 | 0.0 | 2.0 | 0.00 | 0.00 | 0.00 | 91 | 1017.9 |
| 20260901021502 | 74 | 119 | 0.0 | 2.0 | 0.00 | 0.00 | 0.00 | 91 | 1018.0 |
| 20260901021003 | 74 | 119 | 0.0 | 2.0 | 0.00 | 0.00 | 0.00 | 91 | 1018.1 |
| 20260901020502 | 74 | 119 | 0.0 | 2.0 | 0.00 | 0.00 | 0.00 | 91 | 1018.2 |
| 20260901020006 | 74 | 119 | 0.0 | 1.0 | 0.00 | 0.00 | 0.00 | 91 | 1018.3 |
| 20260901015504 | 74 | 119 | 0.0 | 2.0 | 0.00 | 0.00 | 0.00 | 91 | 1018.2 |
| 20260901015007 | 75 | 119 | 0.0 | 2.0 | 0.00 | 0.00 | 0.00 | 91 | 1018.2 |
| 20260901014503 | 74 | 119 | 0.0 | 1.0 | 0.00 | 0.00 | 0.00 | 91 | 1018.2 |
| 20260901014004 | 75 | 119 | 0.0 | 1.0 | 0.00 | 0.00 | 0.00 | 90 | 1018.2 |
| 20260901013503 | 75 | 119 | 0.0 | 0.0 | 0.00 | 0.00 | 0.00 | 90 | 1018.2 |
| 20260901013005 | 75 | 119 | 0.0 | 1.0 | 0.00 | 0.00 | 0.00 | 90 | 1018.3 |
| 20260901012503 | 75 | 119 | 0.0 | 1.0 | 0.00 | 0.00 | 0.00 | 89 | 1018.3 |
| 20260901012015 | 75 | 119 | 0.0 | 1.0 | 0.00 | 0.00 | 0.00 | 90 | 1018.3 |
| 20260901011504 | 75 | 119 | 0.0 | 1.0 | 0.00 | 0.00 | 0.00 | 90 | 1018.2 |
| 20260901011004 | 75 | 119 | 0.0 | 1.0 | 0.00 | 0.00 | 0.00 | 90 | 1018.2 |
| 20260901010503 | 75 | 119 | 1.0 | 2.0 | 0.00 | 0.00 | 0.00 | 89 | 1018.2 |
| 20260901010005 | 75 | 119 | 0.0 | 2.0 | 0.00 | 0.00 | 0.00 | 89 | 1018.1 |
| 20260901005004 | 75 | 119 | 0.0 | 1.0 | 0.00 | 0.00 | 0.00 | 89 | 1018.0 |
| 20260901004003 | 75 | 119 | 0.0 | 2.0 | 0.00 | 0.00 | 0.00 | 89 | 1018.0 |
| 20260901003503 | 75 | 119 | 0.0 | 3.0 | 0.00 | 0.00 | 0.00 | 89 | 1018.0 |
| 20260901002502 | 75 | 119 | 0.0 | 2.0 | 0.00 | 0.00 | 0.00 | 89 | 1017.9 |
| 20260901002003 | 75 | 119 | 0.0 | 2.0 | 0.00 | 0.00 | 0.00 | 89 | 1017.8 |
| 20260901001502 | 75 | 119 | 0.0 | 1.0 | 0.00 | 0.00 | 0.00 | 89 | 1017.8 |
| 20260901000502 | 75 | 119 | 0.0 | 2.0 | 0.00 | 0.00 | 0.00 | 89 | 1017.9 |
| 20260901000006 | 76 | 119 | 0.0 | 1.0 | 0.00 | 0.00 | 0.00 | 89 | 1017.9 |
| 20260831235502 | 75 | 119 | 0.0 | 1.0 | 0.00 | 0.00 | 0.00 | 89 | 1017.9 |
| 20260831235003 | 75 | 119 | 0.0 | 1.0 | 0.00 | 0.00 | 0.00 | 88 | 1017.9 |
| 20260831234003 | 76 | 119 | 0.0 | 1.0 | 0.00 | 0.00 | 0.00 | 87 | 1018.0 |
| 20260831233502 | 76 | 119 | 0.0 | 2.0 | 0.00 | 0.00 | 0.00 | 87 | 1018.0 |
| 20260831233005 | 76 | 119 | 0.0 | 2.0 | 0.00 | 0.00 | 0.00 | 87 | 1018.0 |
| 20260831232502 | 76 | 119 | 0.0 | 1.0 | 0.00 | 0.00 | 0.00 | 87 | 1018.1 |
| 20260831232003 | 76 | 119 | 1.0 | 2.0 | 0.00 | 0.00 | 0.00 | 86 | 1018.1 |
| 20260831231502 | 77 | 119 | 1.0 | 4.0 | 0.00 | 0.00 | 0.00 | 86 | 1018.2 |
| 20260831231003 | 77 | 119 | 0.0 | 4.0 | 0.00 | 0.00 | 0.00 | 86 | 1018.2 |
| 20260831230503 | 77 | 123 | 0.0 | 1.0 | 0.00 | 0.00 | 0.00 | 86 | 1018.2 |
| 20260831225502 | 77 | 123 | 1.0 | 3.0 | 0.00 | 0.00 | 0.00 | 85 | 1018.4 |
| 20260831225003 | 77 | 123 | 1.0 | 3.0 | 0.00 | 0.00 | 0.00 | 85 | 1018.4 |
| 20260831224503 | 77 | 122 | 1.0 | 2.0 | 0.00 | 0.00 | 0.00 | 85 | 1018.3 |
| 20260831224003 | 77 | 122 | 1.0 | 2.0 | 0.00 | 0.00 | 0.00 | 85 | 1018.4 |
| 20260831223503 | 77 | 122 | 1.0 | 3.0 | 0.00 | 0.00 | 0.00 | 85 | 1018.4 |
| 20260831223004 | 77 | 123 | 1.0 | 3.0 | 0.00 | 0.00 | 0.00 | 84 | 1018.5 |
| 20260831222005 | 78 | 121 | 2.0 | 4.0 | 0.00 | 0.00 | 0.00 | 83 | 1018.6 |
| 20260831221503 | 78 | 198 | 2.0 | 5.0 | 0.00 | 0.00 | 0.00 | 83 | 1018.7 |
| 20260831221004 | 78 | 202 | 2.0 | 4.0 | 0.00 | 0.00 | 0.00 | 83 | 1018.8 |
| 20260831220503 | 78 | 204 | 2.0 | 4.0 | 0.00 | 0.00 | 0.00 | 83 | 1018.8 |
| 20260831220005 | 78 | 155 | 2.0 | 6.0 | 0.00 | 0.00 | 0.00 | 83 | 1018.8 |
| 20260831215500 | 78 | 154 | 2.0 | 6.0 | 0.00 | 0.00 | 0.00 | 82 | 1018.8 |
| 20260831215002 | 78 | 73 | 1.0 | 4.0 | 0.00 | 0.00 | 0.00 | 82 | 1018.9 |
| 20260831214501 | 78 | 72 | 1.0 | 4.0 | 0.00 | 0.00 | 0.00 | 82 | 1018.9 |
| 20260831214003 | 78 | 71 | 1.0 | 3.0 | 0.00 | 0.00 | 0.00 | 81 | 1018.9 |
| 20260831213501 | 79 | 71 | 1.0 | 3.0 | 0.00 | 0.00 | 0.00 | 82 | 1018.9 |
| 20260831212502 | 80 | 71 | 2.0 | 8.0 | 0.00 | 0.00 | 0.00 | 80 | 1018.7 |
| 20260831211502 | 81 | 142 | 2.0 | 7.0 | 0.00 | 0.00 | 0.00 | 80 | 1018.6 |
| 20260831211002 | 80 | 104 | 2.0 | 7.0 | 0.00 | 0.00 | 0.00 | 79 | 1018.6 |
| 20260831210501 | 80 | 128 | 2.0 | 5.0 | 0.00 | 0.00 | 0.00 | 80 | 1018.7 |
| 20260831210006 | 80 | 157 | 2.0 | 5.0 | 0.00 | 0.00 | 0.00 | 79 | 1018.5 |
| 20260831205502 | 81 | 131 | 3.0 | 6.0 | 0.00 | 0.00 | 0.00 | 78 | 1018.6 |
| 20260831205003 | 82 | 67 | 3.0 | 6.0 | 0.00 | 0.00 | 0.00 | 77 | 1018.6 |
| 20260831204004 | 82 | 98 | 2.0 | 8.0 | 0.00 | 0.00 | 0.00 | 76 | 1018.4 |
| 20260831203006 | 83 | 86 | 3.0 | 7.0 | 0.00 | 0.00 | 0.00 | 76 | 1018.2 |
| 20260831202502 | 83 | 84 | 3.0 | 6.0 | 0.00 | 0.00 | 0.00 | 76 | 1018.1 |
| 20260831202003 | 83 | 82 | 3.0 | 9.0 | 0.00 | 0.00 | 0.00 | 77 | 1018.1 |
| 20260831200503 | 84 | 103 | 3.0 | 6.0 | 0.00 | 0.00 | 0.00 | 77 | 1018.1 |
| 20260831195502 | 83 | 49 | 3.0 | 6.0 | 0.00 | 0.00 | 0.00 | 77 | 1018.2 |
| 20260831195004 | 82 | 47 | 3.0 | 6.0 | 0.00 | 0.00 | 0.00 | 80 | 1018.2 |
| 20260831194501 | 82 | 44 | 3.0 | 5.0 | 0.00 | 0.00 | 0.00 | 80 | 1018.2 |
| 20260831194002 | 82 | 36 | 2.0 | 5.0 | 0.00 | 0.00 | 0.00 | 79 | 1018.3 |
| 20260831193501 | 83 | 345 | 2.0 | 5.0 | 0.00 | 0.00 | 0.00 | 79 | 1018.3 |
| 20260831193002 | 83 | 334 | 2.0 | 5.0 | 0.00 | 0.00 | 0.00 | 79 | 1018.3 |
| 20260831192502 | 84 | 54 | 2.0 | 4.0 | 0.00 | 0.00 | 0.00 | 78 | 1018.3 |
| 20260831192002 | 84 | 53 | 2.0 | 5.0 | 0.00 | 0.00 | 0.00 | 78 | 1018.3 |
| 20260831191501 | 83 | 54 | 2.0 | 5.0 | 0.00 | 0.00 | 0.00 | 79 | 1018.3 |